SCP
0 0 0 0 0 0 0 0 0 0 0 0 0 0 0 0 0 0 0 0 0 0 0 0 0 0 0 0 0 0 0 0 0 0 0 0 0 0 0 0 0 0 0
0 0 0 0 0 0 0 0 0 0 0 0 0 0 0 0 0 0 0 0 0 0 0 0 0 0 0 0 0 0 0 0 0 0 0 0 0 0 0 0 0 0 0
0 0 0 0 0 0 0 0 0 0 0 0 0 0 0 0 0 0 0 0 0 0 0 0 0 0 0 0 0 0 0 0 0 0 0 0 0 0 0 0 0 0 0
0 0 0 0 0 0 0 0 0 0 0 0 0 0 0 0 0 0 0 0 0 0 0 0 0 0 0 0 0 0 0 0 0 0 0 0 0 0 0 0 0 0 0
0 0 0 0 0 0 0 0 0 0 0 0 0 0 0 0 0 0 0 0 0 0 0 0 0 0 0 0 0 0 0 0 0 0 0 0 0 0 0 0 0 0 0
0 0 0 0 0 0 0 0 0 0 0 0 0 0 0 0 0 0 0 0 0 0 0 0 0 0 0 0 0 0 0 0 0 0 0 0 0 0 0 0 0 0 0
0 0 0 0 0 0 0 0 0 0 0 0 0 0 0 0 0 0 0 0 0 0 0 0 0 0 0 0 0 0 0 0 0 0 0 0 0 0 0 0 0 0 0
0 0 0 0 0 0 0 0 0 0 0 0 0 0 0 0 0 0 0 0 0 0 0 0 0 0 0 0 0 0 0 0 0 0 0 0 0 0 0 0 0 0 0
0 0 0 0 0 0 0 0 0 0 0 0 0 0 0 0 0 0 0 0 0 0 0 0 0 0 0 0 0 0 0 0 0 0 0 0 0 0 0 0 0 0 0
0 0 0 0 0 0 0 0 0 0 0 0 0 0 0 0 0 0 0 0 0 0 0 0 0 0 0 0 0 0 0 0 0 0 0 0 0 0 0 0 0 0 0
0 0 0 0 0 0 0 0 0 0 0 0 0 0 0 0 0 0 0 0 0 0 0 0 0 0 0 0 0 0 0 0 0 0 0 0 0 0 0 0 0 0 0
0 0 0 0 0 0 0 0 0 0 0 0 0 0 0 0 0 0 0 0 0 0 0 0 0 0 0 0 0 0 0 0 0 0 0 0 0 0 0 0 0 0 0
0 0 0 0 0 0 0 0 0 0 0 0 0 0 0 0 0 0 0 0 0 0 0 0 0 0 0 0 0 0 0 0 0 0 0 0 0 0 0 0 0 0 0
0 0 0 0 0 0 0 0 0 0 0 0 0 0 0 0 0 0 0 0 0 0 0 0 0 0 0 0 0 0 0 0 0 0 0 0 0 0 0 0 0 0 0
0 0 0 0 0 0 0 0 0 0 0 0 0 0 0 0 0 0 0 0 0 0 0 0 0 0 0 0 0 0 0 0 0 0 0 0 0 0 0 0 0 0 0
0 0 0 0 0 0 0 0 0 0 0 0 0 0 0 0 0 0 0 0 0 0 0 0 0 0 0 0 0 0 0 0 0 0 0 0 0 0 0 0 0 0 0
0 0 0 0 0 0 0 0 0 0 0 0 0 0 0 0 0 0 0 0 0 0 0 0 0 0 0 0 0 0 0 0 0 0 0 0 0 0 0 0 0 0 0
0 0 0 0 0 0 0 0 0 0 0 0 0 0 0 0 0 0 0 0 0 0 0 0 0 0 0 0 0 0 0 0 0 0 0 0 0 0 0 0 0 0 0
0 0 0 0 0 0 0 0 0 0 0 0 0 0 0 0 0 0 0 0 0 0 0 0 0 0 0 0 0 0 0 0 0 0 0 0 0 0 0 0 0 0 0
0 0 0 0 0 0 0 0 0 0 0 0 0 0 0 0 0 0 0 0 0 0 0 0 0 0 0 0 0 0 0 0 0 0 0 0 0 0 0 0 0 0 0
0 0 0 0 0 0 0 0 0 0 0 0 0 0 0 0 0 0 0 0 0 0 0 0 0 0 0 0 0 0 0 0 0 0 0 0 0 0 0 0 0 0 0
0 0 0 0 0 0 0 0 0 0 0 0 0 0 0 0 0 0 0 0 0 0 0 0 0 0 0 0 0 0 0 0 0 0 0 0 0 0 0 0 0 0 0
0 0 0 0 0 0 0 0 0 0 0 0 0 0 0 0 0 0 0 0 0 0 0 0 0 0 0 0 0 0 0 0 0 0 0 0 0 0 0 0 0 0 0
0 0 0 0 0 0 0 0 0 0 0 0 0 0 0 0 0 0 0 0 0 0 0 0 0 0 0 0 0 0 0 0 0 0 0 0 0 0 0 0 0 0 0
0 0 0 0 0 0 0 0 0 0 0 0 0 0 0 0 0 0 0 0 0 0 0 0 0 0 0 0 0 0 0 0 0 0 0 0 0 0 0 0 0 0 0
0 0 0 0 0 0 0 0 0 0 0 0 0 0 0 0 0 0 0 0 0 0 0 0 0 0 0 0 0 0 0 0 0 0 0 0 0 0 0 0 0 0 0
Wind_Speed
3 2 1 1 2 2 3 2 2 3 3 3 3 4 4 4 4 3 2 7 7 7 8 8 8 8 8 7 7 7 6 6 6 6 5 5 5 5 5 5 4 4 4
3 3 2 2 2 2 2 2 2 2 2 2 2 4 4 4 4 4 3 4 7 7 7 8 8 8 8 7 7 7 7 6 6 6 5 5 5 5 5 5 5 4 4
4 3 2 2 2 2 2 2 2 2 2 2 2 3 3 4 4 4 3 2 3 6 7 7 7 7 7 7 7 7 7 7 6 6 6 5 5 4 4 5 5 5 4
5 3 3 3 2 2 2 2 2 2 2 2 1 1 2 2 3 4 3 3 2 3 5 7 7 7 8 8 7 8 8 7 7 7 7 6 6 6 5 5 5 5 5
5 4 3 3 3 2 2 2 2 2 2 2 2 1 1 1 2 3 4 4 4 3 3 4 6 6 8 8 8 8 8 8 8 8 8 8 7 7 6 6 6 5 5
5 4 3 3 4 3 3 2 2 2 1 2 2 1 0 1 2 2 3 4 4 5 4 4 3 4 7 8 7 7 7 7 7 8 8 7 7 6 6 6 6 5 5
6 5 4 4 4 4 4 4 3 3 2 2 2 2 1 0 1 2 2 3 4 5 4 4 3 3 3 5 6 7 7 7 7 7 7 7 6 6 6 6 5 5 5
6 6 5 4 5 4 4 4 3 3 2 2 3 2 1 2 1 2 2 3 4 3 4 5 5 5 4 3 3 6 7 7 7 7 7 6 6 5 5 5 5 5 5
7 6 6 5 5 5 5 5 5 5 3 2 2 3 3 3 1 1 2 2 3 3 4 3 5 5 5 4 4 5 7 6 7 6 6 5 5 5 5 4 5 4 4
6 6 6 6 6 5 5 6 5 4 4 3 2 1 2 3 3 1 1 1 2 3 3 3 4 4 4 4 4 5 6 5 5 5 5 5 5 4 4 4 4 3 3
5 6 6 6 6 5 5 5 5 5 4 4 4 3 2 1 1 2 1 1 1 1 2 2 2 2 3 4 4 4 5 5 4 4 4 4 3 3 3 3 2 2 2
3 5 6 6 6 5 6 5 5 6 5 4 4 3 3 3 3 3 3 2 1 1 1 0 1 2 2 3 4 5 6 5 4 4 3 3 3 3 3 2 1 1 0
4 5 5 5 5 5 6 5 5 5 6 5 5 4 3 3 3 3 3 2 1 1 1 1 1 1 1 2 2 4 5 5 4 4 4 4 4 3 4 4 3 3 3
5 5 6 6 6 6 6 5 5 5 5 5 6 5 3 3 3 4 4 4 2 0 0 1 1 1 0 1 1 2 2 4 4 5 5 5 4 5 5 5 5 5 4
4 5 6 6 5 5 6 6 4 5 5 5 5 5 4 3 3 3 3 4 4 3 2 1 1 1 0 1 1 2 2 4 5 5 5 5 5 5 5 5 5 5 5
4 5 5 5 5 5 5 5 4 4 5 5 4 5 4 3 3 3 3 3 3 4 3 1 0 1 1 2 4 3 4 6 6 6 6 5 5 5 5 5 5 5 5
4 5 5 5 5 5 4 4 4 5 6 5 4 5 4 3 3 3 3 3 3 3 3 1 1 1 2 3 3 3 4 4 4 7 6 6 6 6 6 5 5 5 5
4 5 5 5 5 5 4 5 5 5 5 5 5 4 4 3 4 3 3 3 3 3 4 4 1 1 2 2 3 4 4 4 4 8 8 8 7 7 6 6 5 5 5
3 3 4 4 4 4 4 5 5 4 5 4 4 4 4 4 4 3 3 3 3 3 3 4 3 1 2 2 3 4 5 4 5 6 8 9 9 8 7 6 5 5 5
3 3 3 3 3 4 4 4 4 4 4 3 3 3 4 5 5 4 3 3 3 4 4 4 3 2 2 2 2 3 3 4 4 5 7 8 9 10 10 9 7 6 5
3 3 3 2 2 3 3 4 4 4 4 3 2 2 2 3 3 3 3 4 5 4 4 4 3 2 2 2 2 2 3 3 4 3 4 4 4 5 5 7 8 8 7
3 3 2 2 2 1 2 4 5 4 4 4 4 4 4 4 7 8 8 7 6 5 4 4 3 3 2 2 2 3 3 3 2 2 3 3 3 4 3 4 6 6 6
3 3 3 3 3 2 3 5 6 5 5 4 5 5 4 5 7 7 10 12 11 10 7 5 5 3 3 2 3 4 3 3 3 1 1 2 2 3 3 4 7 7 7
3 3 3 3 4 4 5 7 8 6 6 5 5 5 6 6 7 8 10 11 10 9 7 6 6 5 4 3 3 4 5 5 4 3 2 2 2 2 3 3 6 8 8
4 4 4 4 5 5 7 8 9 6 6 7 6 6 7 7 11 13 12 12 11 9 13 16 15 13 12 11 7 5 4 4 3 3 3 2 2 2 2 3 4 7 8
4 4 5 5 5 5 6 8 8 6 7 6 6 6 9 9 11 12 10 11 11 8 8 9 11 11 10 11 11 6 4 4 3 2 2 2 2 2 2 2 3 4 5
Wind_Direction
142 136 130 122 117 113 117 114 109 112 114 121 138 147 152 152 156 158 169 179 176 174 171 169 167 166 164 163 165 165 163 160 157 157 160 162 165 165 168 166 161 162 162
155 151 150 151 147 137 133 131 128 121 112 119 137 153 159 157 165 170 179 192 190 186 186 185 183 180 178 178 181 180 181 178 173 175 177 176 179 185 188 188 185 181 183
166 164 165 175 177 152 135 120 113 105 114 115 124 146 158 170 174 181 185 194 201 201 199 198 197 194 192 193 195 195 192 191 188 189 189 189 192 197 197 198 202 200 199
173 170 176 188 173 151 145 140 133 122 118 124 132 145 155 171 186 191 195 200 203 210 215 215 209 207 209 209 207 206 203 202 199 201 204 206 209 210 210 211 213 213 215
178 174 183 187 165 153 160 169 138 141 148 148 150 137 155 187 196 201 206 209 208 207 211 229 225 220 223 224 222 218 214 211 209 210 213 216 218 217 217 220 222 225 229
179 175 183 184 168 160 166 165 141 130 136 145 138 110 62 216 206 221 225 218 215 215 212 220 227 234 235 235 231 228 224 218 215 217 219 222 222 219 218 222 227 230 234
180 179 187 178 173 177 181 169 143 140 131 129 108 74 18 350 220 228 234 229 227 224 213 216 220 225 239 245 241 234 231 227 223 222 223 225 225 223 222 225 229 234 241
185 189 184 180 180 174 171 172 155 147 155 157 137 118 24 338 306 245 230 228 233 225 222 220 218 220 225 232 239 238 236 235 233 227 223 221 222 222 222 225 229 233 238
191 189 186 182 183 179 184 185 176 165 165 174 161 150 160 213 261 296 250 235 229 221 227 222 222 224 221 223 233 239 237 235 233 230 218 211 210 215 217 219 222 226 232
192 191 187 186 184 185 188 192 184 175 157 167 175 184 168 159 162 236 305 266 236 232 233 232 231 228 222 220 221 221 225 226 226 223 214 207 203 204 206 213 221 220 223
198 193 189 187 187 190 192 190 178 179 174 172 172 167 156 129 143 159 229 294 328 274 247 236 236 236 228 219 221 215 207 210 210 208 206 199 191 189 193 199 213 221 229
197 198 193 191 190 191 193 194 187 184 187 182 180 174 168 167 181 175 193 220 238 298 315 262 239 239 231 216 213 196 195 198 198 193 186 170 161 154 150 152 164 182 285
198 205 199 194 193 196 192 187 186 191 191 189 190 194 192 192 166 164 167 182 199 278 341 13 284 254 229 205 200 184 178 174 169 166 157 145 139 131 124 114 97 71 48
202 198 196 197 196 193 191 184 189 197 193 197 200 194 193 200 183 178 172 162 163 211 337 295 349 322 252 179 150 149 139 139 144 146 144 139 128 120 109 100 91 80 69
200 193 194 197 198 192 188 181 192 199 192 198 197 194 197 201 194 196 184 174 168 189 223 249 296 350 25 105 95 116 122 113 123 129 130 125 121 116 109 104 101 92 80
194 184 189 193 195 192 187 183 191 196 191 197 190 188 198 199 196 192 194 191 182 178 193 200 221 3 36 105 92 101 98 95 97 109 111 111 114 113 108 101 93 87 79
189 186 189 190 191 191 185 184 195 191 191 194 193 191 202 195 189 187 183 180 181 168 179 180 87 45 60 78 81 91 90 84 78 85 97 100 103 101 98 94 89 82 73
191 188 183 187 194 194 189 188 197 195 190 189 191 189 201 195 194 188 184 187 185 178 169 172 137 77 66 80 85 81 76 79 81 76 85 86 85 84 84 85 84 78 68
185 179 178 186 191 191 191 193 192 188 184 185 186 189 195 186 194 190 183 184 179 165 153 151 146 112 82 80 82 75 68 57 74 75 75 71 72 73 69 68 69 67 60
163 170 173 181 184 178 180 183 180 176 169 168 178 188 190 188 191 181 171 168 152 137 129 129 128 115 98 86 98 98 81 60 58 62 65 66 66 68 63 59 60 59 54
145 144 151 163 169 172 183 178 171 164 157 144 133 133 137 137 144 145 149 150 146 138 134 130 127 111 105 110 114 112 109 92 60 46 66 59 55 56 53 51 54 53 51
112 114 123 133 141 162 148 151 145 138 135 132 123 108 98 96 98 96 97 102 114 133 142 134 129 128 128 122 110 119 123 122 98 24 65 58 49 52 43 47 43 46 45
100 101 101 101 100 97 118 128 129 127 123 123 123 117 104 95 98 101 89 81 76 83 105 127 124 124 130 137 131 116 100 93 93 40 71 64 35 43 30 36 30 31 27
92 93 93 100 99 85 100 115 115 109 105 98 97 104 107 98 99 108 100 86 73 62 74 84 94 90 88 96 111 121 116 101 88 48 38 73 21 20 23 15 16 18 16
88 82 83 90 93 83 91 106 114 106 98 89 84 87 100 101 102 106 103 98 90 79 76 83 82 79 77 76 83 96 98 98 78 42 21 60 24 355 3 4 3 6 2
97 92 81 80 90 88 90 103 112 113 107 99 87 83 88 101 106 106 108 109 105 98 93 84 73 65 64 62 60 63 81 91 90 69 19 39 24 4 3 350 342 345 350